TimeCDT,TemperatureF,Dew PointF,Humidity,Sea Level PressureIn,VisibilityMPH,Wind Direction,Wind SpeedMPH,Gust SpeedMPH,PrecipitationIn,Events,Conditions,WindDirDegrees,DateUTC
12:15 AM,67.3,58.3,73,29.96,10.0,South,8.1,-,N/A,,Clear,180,2013-05-01 05:15:00
12:35 AM,68.2,58.1,70,29.96,10.0,South,11.5,-,N/A,,Clear,190,2013-05-01 05:35:00
12:55 AM,68.5,57.7,68,29.97,10.0,South,12.7,-,N/A,,Clear,190,2013-05-01 05:55:00
1:15 AM,68.2,57.6,69,29.97,10.0,South,11.5,-,N/A,,Clear,190,2013-05-01 06:15:00
1:35 AM,67.5,57.2,70,29.97,10.0,SSW,10.4,-,N/A,,Clear,200,2013-05-01 06:35:00
1:55 AM,66.7,57.2,71,29.98,10.0,SSW,10.4,-,N/A,,Clear,200,2013-05-01 06:55:00
2:15 AM,66.0,56.8,72,29.98,10.0,South,9.2,-,N/A,,Clear,190,2013-05-01 07:15:00
2:35 AM,65.3,56.7,74,29.98,10.0,South,6.9,-,N/A,,Clear,190,2013-05-01 07:35:00
2:55 AM,63.7,56.3,77,29.98,10.0,South,6.9,-,N/A,,Clear,170,2013-05-01 07:55:00
3:15 AM,62.6,56.1,79,29.99,10.0,SSE,6.9,-,N/A,,Clear,160,2013-05-01 08:15:00
3:35 AM,62.2,56.3,81,30.00,10.0,SSE,6.9,-,N/A,,Clear,160,2013-05-01 08:35:00
3:55 AM,61.9,56.3,82,30.00,10.0,South,6.9,-,N/A,,Clear,170,2013-05-01 08:55:00
4:15 AM,61.2,55.8,82,30.01,10.0,SSE,5.8,-,N/A,,Clear,160,2013-05-01 09:15:00
4:35 AM,60.8,55.8,83,30.02,10.0,South,4.6,-,N/A,,Clear,170,2013-05-01 09:35:00
4:55 AM,60.3,55.4,84,30.02,10.0,SSE,5.8,-,N/A,,Clear,160,2013-05-01 09:55:00
5:15 AM,59.9,55.6,86,30.03,10.0,South,5.8,-,N/A,,Clear,170,2013-05-01 10:15:00
5:35 AM,59.0,55.4,88,30.03,10.0,SSE,5.8,-,N/A,,Clear,160,2013-05-01 10:35:00
5:55 AM,58.5,55.6,90,30.04,10.0,South,5.8,-,N/A,,Clear,170,2013-05-01 10:55:00
6:15 AM,58.5,55.8,91,30.05,10.0,South,6.9,-,N/A,,Clear,170,2013-05-01 11:15:00
6:35 AM,59.4,56.8,91,30.06,10.0,SSE,4.6,-,N/A,,Clear,160,2013-05-01 11:35:00
6:55 AM,61.0,57.2,87,30.06,10.0,SE,3.5,-,N/A,,Clear,140,2013-05-01 11:55:00
7:15 AM,62.8,57.0,81,30.06,10.0,SSE,5.8,-,N/A,,Clear,150,2013-05-01 12:15:00
7:35 AM,64.8,57.2,76,30.06,10.0,SSE,5.8,-,N/A,,Clear,150,2013-05-01 12:35:00
7:55 AM,66.2,57.2,73,30.07,10.0,South,6.9,-,N/A,,Clear,170,2013-05-01 12:55:00
8:15 AM,68.0,57.4,69,30.07,10.0,SSE,8.1,-,N/A,,Clear,160,2013-05-01 13:15:00
8:35 AM,70.0,57.4,64,30.08,10.0,SSE,8.1,-,N/A,,Clear,160,2013-05-01 13:35:00
8:55 AM,72.0,57.6,60,30.08,10.0,South,8.1,-,N/A,,Clear,170,2013-05-01 13:55:00
9:15 AM,73.6,57.2,56,30.08,10.0,South,5.8,-,N/A,,Clear,180,2013-05-01 14:15:00
9:35 AM,75.4,57.6,54,30.09,10.0,South,6.9,-,N/A,,Clear,190,2013-05-01 14:35:00
9:55 AM,77.2,56.1,48,30.09,10.0,SSW,9.2,-,N/A,,Clear,200,2013-05-01 14:55:00
10:15 AM,78.8,56.1,46,30.09,10.0,South,6.9,-,N/A,,Clear,180,2013-05-01 15:15:00
10:35 AM,79.7,54.1,41,30.09,10.0,SSW,10.4,-,N/A,,Clear,200,2013-05-01 15:35:00
10:55 AM,80.8,52.9,38,30.09,10.0,SSW,10.4,-,N/A,,Clear,200,2013-05-01 15:55:00
11:15 AM,81.3,50.9,35,30.09,10.0,SSW,12.7,-,N/A,,Clear,200,2013-05-01 16:15:00
11:35 AM,81.5,49.6,33,30.09,10.0,SW,5.8,9.2,N/A,,Clear,220,2013-05-01 16:35:00
11:55 AM,81.7,50.2,33,30.09,10.0,South,9.2,-,N/A,,Scattered Clouds,170,2013-05-01 16:55:00
12:15 PM,82.4,49.8,32,30.09,10.0,South,6.9,-,N/A,,Scattered Clouds,170,2013-05-01 17:15:00
12:35 PM,82.6,49.5,31,30.08,10.0,South,11.5,-,N/A,,Clear,180,2013-05-01 17:35:00
12:55 PM,83.1,50.0,32,30.08,10.0,South,11.5,-,N/A,,Clear,170,2013-05-01 17:55:00
1:15 PM,83.5,50.5,32,30.08,10.0,SE,12.7,18.4,N/A,,Clear,130,2013-05-01 18:15:00
1:35 PM,83.1,50.0,32,30.08,10.0,SE,11.5,17.3,N/A,,Clear,130,2013-05-01 18:35:00
1:55 PM,83.3,48.2,29,30.08,10.0,South,8.1,-,N/A,,Clear,180,2013-05-01 18:55:00
2:15 PM,85.1,48.7,28,30.08,10.0,South,11.5,-,N/A,,Clear,170,2013-05-01 19:15:00
2:35 PM,84.4,48.4,29,30.08,10.0,SE,13.8,17.3,N/A,,Scattered Clouds,140,2013-05-01 19:35:00
2:55 PM,83.1,48.0,29,30.08,10.0,SSE,9.2,-,N/A,,Scattered Clouds,150,2013-05-01 19:55:00
3:15 PM,84.6,48.7,29,30.08,10.0,SE,10.4,19.6,N/A,,Scattered Clouds,130,2013-05-01 20:15:00
3:35 PM,85.8,48.0,27,30.08,10.0,SSE,11.5,23.0,N/A,,Scattered Clouds,150,2013-05-01 20:35:00
3:55 PM,85.6,46.9,26,30.08,10.0,SSW,12.7,18.4,N/A,,Clear,200,2013-05-01 20:55:00
4:15 PM,85.6,47.7,27,30.07,10.0,SSE,12.7,-,N/A,,Clear,150,2013-05-01 21:15:00
4:35 PM,85.8,48.2,27,30.07,10.0,South,16.1,-,N/A,,Scattered Clouds,190,2013-05-01 21:35:00
4:55 PM,85.3,48.2,28,30.08,10.0,South,13.8,18.4,N/A,,Scattered Clouds,170,2013-05-01 21:55:00
5:15 PM,85.1,48.0,27,30.08,10.0,SSE,11.5,-,N/A,,Scattered Clouds,150,2013-05-01 22:15:00
5:35 PM,84.6,48.2,28,30.08,10.0,SSE,18.4,23.0,N/A,,Scattered Clouds,160,2013-05-01 22:35:00
5:55 PM,83.3,48.4,30,30.08,10.0,SSE,12.7,-,N/A,,Scattered Clouds,160,2013-05-01 22:55:00
6:15 PM,83.3,48.0,29,30.08,10.0,SSE,10.4,-,N/A,,Scattered Clouds,160,2013-05-01 23:15:00
6:35 PM,81.5,49.3,32,30.08,10.0,SSE,9.2,-,N/A,,Scattered Clouds,160,2013-05-01 23:35:00
6:55 PM,80.4,49.3,34,30.09,10.0,SSE,10.4,-,N/A,,Clear,160,2013-05-01 23:55:00
7:15 PM,79.2,50.7,37,30.09,10.0,SSE,11.5,-,N/A,,Scattered Clouds,160,2013-05-02 00:15:00
7:35 PM,77.4,51.6,41,30.09,10.0,SSE,8.1,-,N/A,,Clear,160,2013-05-02 00:35:00
7:55 PM,75.9,51.8,43,30.10,10.0,SSE,9.2,-,N/A,,Clear,160,2013-05-02 00:55:00
8:15 PM,74.5,52.0,45,30.11,10.0,SSE,6.9,-,N/A,,Clear,160,2013-05-02 01:15:00
8:35 PM,71.6,52.3,51,30.11,10.0,SE,6.9,-,N/A,,Clear,140,2013-05-02 01:35:00
8:55 PM,70.9,52.7,53,30.11,10.0,SE,6.9,-,N/A,,Clear,140,2013-05-02 01:55:00
9:15 PM,70.5,52.7,53,30.12,10.0,SSE,6.9,-,N/A,,Clear,150,2013-05-02 02:15:00
9:35 PM,70.7,52.3,52,30.12,10.0,SSE,5.8,-,N/A,,Clear,150,2013-05-02 02:35:00
9:55 PM,71.1,52.0,51,30.12,10.0,SSE,4.6,-,N/A,,Clear,160,2013-05-02 02:55:00
10:15 PM,69.8,51.8,53,30.12,10.0,SSE,3.5,-,N/A,,Clear,160,2013-05-02 03:15:00
10:35 PM,70.2,51.8,52,30.12,10.0,SSE,4.6,-,N/A,,Clear,160,2013-05-02 03:35:00
10:55 PM,68.9,51.8,54,30.12,10.0,South,4.6,-,N/A,,Clear,170,2013-05-02 03:55:00
11:15 PM,68.7,51.8,55,30.12,10.0,SSE,4.6,-,N/A,,Clear,150,2013-05-02 04:15:00
11:35 PM,67.5,51.8,57,30.12,10.0,SSE,4.6,-,N/A,,Clear,150,2013-05-02 04:35:00
11:55 PM,66.9,51.8,58,30.12,10.0,Calm,Calm,-,N/A,,Clear,0,2013-05-02 04:55:00